Wetterdaten: Dienstag, 06.10.2015
Datum Zeit Auen-Temp. Temp gefhlt Luftfeuchte Luftdruck Regen Wind Richtung Richtung Taupunkt Windben
06.10.2015 00:00 11,0 C 10,7 C 81 % 1011,8 hPa 0,0 mm 0,0 km/h (0 Bft) O-NO 67 7,9 C 0,0 km/h (0 Bft)
06.10.2015 00:05 11,0 C 10,7 C 82 % 1011,8 hPa 0,0 mm 0,0 km/h (0 Bft) O-NO 67 8,0 C 0,0 km/h (0 Bft)
06.10.2015 00:10 10,9 C 10,7 C 82 % 1011,8 hPa 0,0 mm 0,0 km/h (0 Bft) SW 225 7,9 C 0,0 km/h (0 Bft)
06.10.2015 00:15 11,1 C 10,8 C 84 % 1012,0 hPa 0,0 mm 0,0 km/h (0 Bft) SO 135 8,5 C 0,0 km/h (0 Bft)
06.10.2015 00:20 11,2 C 10,9 C 84 % 1012,0 hPa 0,0 mm 0,0 km/h (0 Bft) S-SW 202 8,6 C 0,0 km/h (0 Bft)
06.10.2015 00:25 11,2 C 10,9 C 84 % 1012,0 hPa 0,0 mm 0,0 km/h (0 Bft) SW 225 8,6 C 0,0 km/h (0 Bft)
06.10.2015 00:30 11,1 C 10,9 C 84 % 1012,0 hPa 0,7 mm 0,0 km/h (0 Bft) O-NO 67 8,5 C 0,0 km/h (0 Bft)
06.10.2015 00:35 11,1 C 10,9 C 85 % 1011,8 hPa 0,0 mm 0,5 km/h (0 Bft) O-NO 67 8,7 C 3,9 km/h (1 Bft)
06.10.2015 00:40 11,3 C 11,0 C 86 % 1011,8 hPa 0,0 mm 2,6 km/h (1 Bft) SO 135 9,0 C 5,7 km/h (1 Bft)
06.10.2015 00:45 11,3 C 11,1 C 86 % 1011,8 hPa 0,0 mm 3,1 km/h (1 Bft) SO 135 9,0 C 0,0 km/h (0 Bft)
06.10.2015 00:50 11,3 C 11,1 C 85 % 1011,8 hPa 0,0 mm 1,6 km/h (1 Bft) S-SO 157 8,9 C 0,0 km/h (0 Bft)
06.10.2015 00:55 11,3 C 11,1 C 85 % 1011,9 hPa 0,0 mm 0,8 km/h (0 Bft) O-NO 67 8,9 C 0,0 km/h (0 Bft)
06.10.2015 01:00 11,2 C 11,0 C 85 % 1011,9 hPa 0,0 mm 0,3 km/h (0 Bft) W-SW 247 8,8 C 0,0 km/h (0 Bft)
06.10.2015 01:05 11,3 C 11,1 C 85 % 1011,9 hPa 0,0 mm 0,0 km/h (0 Bft) NW 315 8,9 C 0,0 km/h (0 Bft)
06.10.2015 01:10 11,3 C 11,1 C 85 % 1011,9 hPa 0,0 mm 0,0 km/h (0 Bft) O-NO 67 8,9 C 0,0 km/h (0 Bft)
06.10.2015 01:15 11,3 C 11,1 C 85 % 1012,0 hPa 0,0 mm 0,0 km/h (0 Bft) O-NO 67 8,9 C 0,0 km/h (0 Bft)
06.10.2015 01:20 11,4 C 11,2 C 85 % 1012,0 hPa 0,0 mm 0,0 km/h (0 Bft) O 90 9,0 C 0,0 km/h (0 Bft)
06.10.2015 01:25 11,5 C 11,3 C 85 % 1012,0 hPa 0,0 mm 0,0 km/h (0 Bft) O-NO 67 9,1 C 0,0 km/h (0 Bft)
06.10.2015 01:30 11,5 C 11,4 C 82 % 1012,0 hPa 0,0 mm 0,5 km/h (0 Bft) W 270 8,5 C 4,9 km/h (1 Bft)
06.10.2015 01:35 11,7 C 11,6 C 83 % 1011,8 hPa 0,0 mm 1,0 km/h (0 Bft) O-NO 67 8,9 C 2,6 km/h (1 Bft)
06.10.2015 01:40 11,8 C 11,6 C 83 % 1011,8 hPa 0,0 mm 2,3 km/h (1 Bft) O-NO 67 9,0 C 0,0 km/h (0 Bft)
06.10.2015 01:45 11,7 C 11,5 C 85 % 1011,8 hPa 0,0 mm 1,3 km/h (1 Bft) NO 45 9,3 C 0,0 km/h (0 Bft)
06.10.2015 01:50 11,7 C 11,5 C 86 % 1011,8 hPa 0,0 mm 1,3 km/h (1 Bft) S 180 9,4 C 8,0 km/h (2 Bft)
06.10.2015 01:55 12,1 C 11,8 C 86 % 1011,9 hPa 0,0 mm 3,6 km/h (1 Bft) S-SO 157 9,8 C 9,1 km/h (2 Bft)
06.10.2015 02:00 12,1 C 11,8 C 85 % 1011,9 hPa 0,0 mm 4,1 km/h (1 Bft) S-SW 202 9,7 C 0,0 km/h (0 Bft)
06.10.2015 02:05 12,1 C 11,8 C 86 % 1011,9 hPa 0,0 mm 2,1 km/h (1 Bft) S-SO 157 9,8 C 0,0 km/h (0 Bft)
06.10.2015 02:10 12,0 C 11,8 C 85 % 1011,9 hPa 0,0 mm 0,0 km/h (0 Bft) N-NW 337 9,6 C 0,0 km/h (0 Bft)
06.10.2015 02:15 12,0 C 11,8 C 86 % 1011,7 hPa 0,0 mm 0,5 km/h (0 Bft) S-SO 157 9,7 C 4,1 km/h (1 Bft)
06.10.2015 02:20 12,0 C 11,8 C 86 % 1011,7 hPa 0,0 mm 1,0 km/h (0 Bft) NO 45 9,7 C 0,0 km/h (0 Bft)
06.10.2015 02:25 12,0 C 11,8 C 86 % 1011,7 hPa 0,0 mm 1,0 km/h (0 Bft) S 180 9,7 C 0,0 km/h (0 Bft)
06.10.2015 02:27 12,0 C 11,8 C 86 % 1011,7 hPa 0,0 mm 0,3 km/h (0 Bft) S 180 9,7 C 0,0 km/h (0 Bft)
06.10.2015 02:30 12,0 C 11,8 C 86 % 1011,7 hPa 0,0 mm 0,3 km/h (0 Bft) S 180 9,7 C 0,0 km/h (0 Bft)
06.10.2015 02:35 11,9 C 11,8 C 86 % 1011,8 hPa 0,0 mm 0,3 km/h (0 Bft) S-SO 157 9,6 C 0,0 km/h (0 Bft)
06.10.2015 02:40 11,9 C 11,8 C 87 % 1011,8 hPa 0,0 mm 0,0 km/h (0 Bft) S-SO 157 9,8 C 0,0 km/h (0 Bft)
06.10.2015 02:45 11,8 C 11,7 C 87 % 1011,8 hPa 0,0 mm 0,0 km/h (0 Bft) S 180 9,7 C 0,0 km/h (0 Bft)
06.10.2015 02:50 11,8 C 11,7 C 87 % 1011,8 hPa 0,0 mm 0,8 km/h (0 Bft) S-SO 157 9,7 C 0,0 km/h (0 Bft)
06.10.2015 02:55 11,8 C 11,7 C 87 % 1011,9 hPa 0,0 mm 0,8 km/h (0 Bft) S-SO 157 9,7 C 0,0 km/h (0 Bft)
06.10.2015 03:00 11,7 C 11,6 C 87 % 1011,9 hPa 0,0 mm 0,0 km/h (0 Bft) SO 135 9,6 C 0,0 km/h (0 Bft)
06.10.2015 03:05 11,7 C 11,6 C 87 % 1011,9 hPa 0,0 mm 0,0 km/h (0 Bft) SO 135 9,6 C 0,0 km/h (0 Bft)
06.10.2015 03:10 11,7 C 11,6 C 88 % 1011,9 hPa 0,0 mm 0,5 km/h (0 Bft) S-SO 157 9,8 C 0,0 km/h (0 Bft)
06.10.2015 03:15 11,7 C 11,6 C 88 % 1011,9 hPa 0,0 mm 0,5 km/h (0 Bft) S-SO 157 9,8 C 0,0 km/h (0 Bft)
06.10.2015 03:20 11,6 C 11,5 C 88 % 1011,9 hPa 0,0 mm 0,5 km/h (0 Bft) S-SO 157 9,7 C 0,0 km/h (0 Bft)
06.10.2015 03:25 11,6 C 11,5 C 88 % 1011,9 hPa 0,0 mm 0,3 km/h (0 Bft) S-SO 157 9,7 C 0,0 km/h (0 Bft)
06.10.2015 03:30 11,7 C 11,6 C 88 % 1011,9 hPa 0,0 mm 0,5 km/h (0 Bft) SO 135 9,8 C 0,0 km/h (0 Bft)
06.10.2015 03:35 11,7 C 11,6 C 89 % 1011,7 hPa 0,0 mm 0,0 km/h (0 Bft) SO 135 9,9 C 0,0 km/h (0 Bft)
06.10.2015 03:40 11,7 C 11,6 C 89 % 1011,7 hPa 0,7 mm 0,0 km/h (0 Bft) S-SO 157 9,9 C 0,0 km/h (0 Bft)
06.10.2015 03:45 11,6 C 11,5 C 89 % 1011,7 hPa 0,0 mm 0,0 km/h (0 Bft) O-SO 112 9,8 C 0,0 km/h (0 Bft)
06.10.2015 03:50 11,4 C 11,4 C 89 % 1011,7 hPa 0,0 mm 0,0 km/h (0 Bft) O-SO 112 9,7 C 0,0 km/h (0 Bft)
06.10.2015 03:55 11,4 C 11,3 C 88 % 1011,3 hPa 0,0 mm 0,0 km/h (0 Bft) O-SO 112 9,5 C 0,0 km/h (0 Bft)
06.10.2015 04:00 11,3 C 11,2 C 88 % 1011,3 hPa 0,0 mm 0,0 km/h (0 Bft) W-NW 292 9,4 C 0,0 km/h (0 Bft)
06.10.2015 04:05 11,3 C 11,2 C 88 % 1011,3 hPa 0,0 mm 0,3 km/h (0 Bft) W 270 9,4 C 0,0 km/h (0 Bft)
06.10.2015 04:10 11,3 C 11,2 C 88 % 1011,3 hPa 0,0 mm 0,3 km/h (0 Bft) W 270 9,4 C 0,0 km/h (0 Bft)
06.10.2015 04:15 11,2 C 11,1 C 88 % 1010,9 hPa 0,0 mm 0,0 km/h (0 Bft) W 270 9,3 C 0,0 km/h (0 Bft)
06.10.2015 04:20 11,1 C 11,0 C 88 % 1010,9 hPa 0,0 mm 0,0 km/h (0 Bft) N-NO 22 9,2 C 0,0 km/h (0 Bft)
06.10.2015 04:25 11,0 C 10,9 C 88 % 1010,9 hPa 0,0 mm 0,0 km/h (0 Bft) N-NO 22 9,1 C 0,0 km/h (0 Bft)
06.10.2015 04:30 10,9 C 10,8 C 89 % 1010,9 hPa 0,0 mm 0,0 km/h (0 Bft) W 270 9,2 C 0,0 km/h (0 Bft)
06.10.2015 04:35 10,9 C 10,8 C 89 % 1011,1 hPa 0,0 mm 0,0 km/h (0 Bft) W-NW 292 9,2 C 0,0 km/h (0 Bft)
06.10.2015 04:40 10,8 C 10,8 C 89 % 1011,1 hPa 0,0 mm 0,0 km/h (0 Bft) NW 315 9,1 C 0,0 km/h (0 Bft)
06.10.2015 04:45 10,9 C 10,8 C 89 % 1011,1 hPa 0,0 mm 0,0 km/h (0 Bft) NW 315 9,2 C 0,0 km/h (0 Bft)
06.10.2015 04:50 10,9 C 10,9 C 89 % 1011,1 hPa 0,0 mm 0,0 km/h (0 Bft) W 270 9,2 C 0,0 km/h (0 Bft)
06.10.2015 04:55 11,0 C 10,9 C 89 % 1011,3 hPa 0,0 mm 0,0 km/h (0 Bft) SO 135 9,3 C 0,0 km/h (0 Bft)
06.10.2015 05:00 11,0 C 10,9 C 89 % 1011,3 hPa 0,0 mm 0,0 km/h (0 Bft) SO 135 9,3 C 0,0 km/h (0 Bft)
06.10.2015 05:05 10,9 C 10,9 C 89 % 1011,3 hPa 0,0 mm 0,0 km/h (0 Bft) SO 135 9,2 C 0,0 km/h (0 Bft)
06.10.2015 05:10 11,0 C 10,9 C 89 % 1011,3 hPa 0,0 mm 0,0 km/h (0 Bft) SO 135 9,3 C 0,0 km/h (0 Bft)
06.10.2015 05:15 10,9 C 10,9 C 89 % 1011,3 hPa 0,0 mm 0,0 km/h (0 Bft) SO 135 9,2 C 0,0 km/h (0 Bft)
06.10.2015 05:20 10,9 C 10,9 C 89 % 1011,3 hPa 0,0 mm 0,0 km/h (0 Bft) S-SO 157 9,2 C 0,0 km/h (0 Bft)
06.10.2015 05:25 10,9 C 10,9 C 89 % 1011,3 hPa 0,0 mm 0,0 km/h (0 Bft) O 90 9,2 C 0,0 km/h (0 Bft)
06.10.2015 05:30 10,9 C 10,9 C 89 % 1011,3 hPa 0,0 mm 0,0 km/h (0 Bft) O-NO 67 9,2 C 0,0 km/h (0 Bft)
06.10.2015 05:35 11,0 C 10,9 C 89 % 1011,0 hPa 0,0 mm 0,0 km/h (0 Bft) N 360 9,3 C 0,0 km/h (0 Bft)
06.10.2015 05:40 11,0 C 11,0 C 89 % 1011,0 hPa 0,0 mm 0,0 km/h (0 Bft) NO 45 9,3 C 0,0 km/h (0 Bft)
06.10.2015 05:45 11,1 C 11,0 C 89 % 1011,0 hPa 0,0 mm 0,0 km/h (0 Bft) N 360 9,4 C 0,0 km/h (0 Bft)
06.10.2015 05:50 11,1 C 11,2 C 86 % 1011,0 hPa 0,0 mm 0,0 km/h (0 Bft) N 360 8,8 C 0,0 km/h (0 Bft)
06.10.2015 05:55 11,1 C 11,2 C 86 % 1010,9 hPa 0,0 mm 0,0 km/h (0 Bft) O-NO 67 8,8 C 0,0 km/h (0 Bft)
06.10.2015 06:00 11,2 C 11,2 C 89 % 1010,9 hPa 0,0 mm 0,0 km/h (0 Bft) O-NO 67 9,5 C 0,0 km/h (0 Bft)
06.10.2015 06:05 11,1 C 11,1 C 89 % 1010,9 hPa 0,0 mm 0,0 km/h (0 Bft) N-NO 22 9,4 C 0,0 km/h (0 Bft)
06.10.2015 06:10 11,2 C 11,2 C 89 % 1010,9 hPa 0,0 mm 0,5 km/h (0 Bft) N-NW 337 9,5 C 2,8 km/h (1 Bft)
06.10.2015 06:15 11,3 C 11,3 C 86 % 1010,9 hPa 0,0 mm 0,5 km/h (0 Bft) W-SW 247 9,0 C 0,0 km/h (0 Bft)
06.10.2015 06:20 11,4 C 11,4 C 86 % 1010,9 hPa 0,0 mm 0,3 km/h (0 Bft) O-SO 112 9,1 C 0,0 km/h (0 Bft)
06.10.2015 06:25 11,4 C 11,3 C 89 % 1010,9 hPa 0,0 mm 0,0 km/h (0 Bft) O-SO 112 9,7 C 0,0 km/h (0 Bft)
06.10.2015 06:30 11,3 C 11,2 C 89 % 1010,9 hPa 0,0 mm 0,0 km/h (0 Bft) O-SO 112 9,6 C 0,0 km/h (0 Bft)
06.10.2015 06:35 11,3 C 11,2 C 89 % 1010,9 hPa 0,0 mm 0,0 km/h (0 Bft) O-SO 112 9,6 C 0,0 km/h (0 Bft)
06.10.2015 06:40 11,2 C 11,1 C 89 % 1010,9 hPa 0,0 mm 0,0 km/h (0 Bft) N-NO 22 9,5 C 0,0 km/h (0 Bft)
06.10.2015 06:45 11,1 C 11,0 C 89 % 1010,9 hPa 0,0 mm 0,0 km/h (0 Bft) NW 315 9,4 C 0,0 km/h (0 Bft)
06.10.2015 06:50 11,0 C 10,9 C 89 % 1010,9 hPa 0,0 mm 0,0 km/h (0 Bft) O-NO 67 9,3 C 0,0 km/h (0 Bft)
06.10.2015 06:55 10,8 C 10,7 C 89 % 1010,6 hPa 0,0 mm 0,0 km/h (0 Bft) NO 45 9,1 C 0,0 km/h (0 Bft)
06.10.2015 07:00 10,6 C 10,5 C 89 % 1010,6 hPa 0,0 mm 0,0 km/h (0 Bft) N 360 8,9 C 0,0 km/h (0 Bft)
06.10.2015 07:05 10,7 C 10,5 C 89 % 1010,6 hPa 0,0 mm 0,3 km/h (0 Bft) S 180 9,0 C 0,0 km/h (0 Bft)
06.10.2015 07:10 10,6 C 10,5 C 89 % 1010,6 hPa 0,0 mm 0,3 km/h (0 Bft) W-SW 247 8,9 C 0,0 km/h (0 Bft)
06.10.2015 07:15 10,8 C 10,6 C 89 % 1010,5 hPa 0,0 mm 0,0 km/h (0 Bft) N 360 9,1 C 0,0 km/h (0 Bft)
06.10.2015 07:20 10,7 C 10,6 C 89 % 1010,5 hPa 0,0 mm 0,0 km/h (0 Bft) N 360 9,0 C 0,0 km/h (0 Bft)
06.10.2015 07:25 10,7 C 10,6 C 89 % 1010,5 hPa 0,0 mm 0,0 km/h (0 Bft) NW 315 9,0 C 4,1 km/h (1 Bft)
06.10.2015 07:30 10,8 C 10,6 C 89 % 1010,5 hPa 0,0 mm 0,0 km/h (0 Bft) N-NO 22 9,1 C 0,0 km/h (0 Bft)
06.10.2015 07:35 10,8 C 10,7 C 89 % 1010,5 hPa 0,0 mm 0,0 km/h (0 Bft) N-NO 22 9,1 C 0,0 km/h (0 Bft)
06.10.2015 07:40 10,9 C 10,8 C 89 % 1010,5 hPa 0,0 mm 0,0 km/h (0 Bft) N-NO 22 9,2 C 0,0 km/h (0 Bft)
06.10.2015 07:45 11,0 C 10,9 C 88 % 1010,5 hPa 0,0 mm 0,3 km/h (0 Bft) O-SO 112 9,1 C 0,0 km/h (0 Bft)
06.10.2015 07:50 11,2 C 11,1 C 88 % 1010,5 hPa 0,0 mm 0,3 km/h (0 Bft) N 360 9,3 C 0,0 km/h (0 Bft)
06.10.2015 07:55 11,3 C 11,2 C 88 % 1010,3 hPa 0,0 mm 0,3 km/h (0 Bft) O-SO 112 9,4 C 0,0 km/h (0 Bft)
06.10.2015 08:00 11,3 C 11,4 C 88 % 1010,3 hPa 0,0 mm 0,0 km/h (0 Bft) NO 45 9,4 C 0,0 km/h (0 Bft)
06.10.2015 08:05 11,3 C 11,5 C 85 % 1010,3 hPa 0,0 mm 0,0 km/h (0 Bft) NO 45 8,9 C 0,0 km/h (0 Bft)
06.10.2015 08:10 11,5 C 11,8 C 88 % 1010,3 hPa 0,0 mm 0,0 km/h (0 Bft) NO 45 9,6 C 0,0 km/h (0 Bft)
06.10.2015 08:15 11,5 C 12,0 C 85 % 1010,1 hPa 0,0 mm 0,0 km/h (0 Bft) NW 315 9,1 C 0,0 km/h (0 Bft)
06.10.2015 08:20 11,6 C 12,2 C 85 % 1010,1 hPa 0,0 mm 0,0 km/h (0 Bft) N-NW 337 9,2 C 0,0 km/h (0 Bft)
06.10.2015 08:25 11,7 C 12,4 C 85 % 1010,1 hPa 0,0 mm 0,0 km/h (0 Bft) NO 45 9,3 C 0,0 km/h (0 Bft)
06.10.2015 08:28 11,8 C 12,5 C 87 % 1010,1 hPa 0,0 mm 0,0 km/h (0 Bft) N-NO 22 9,7 C 0,0 km/h (0 Bft)
06.10.2015 08:30 11,8 C 12,5 C 87 % 1010,1 hPa 0,0 mm 0,0 km/h (0 Bft) N-NO 22 9,7 C 0,0 km/h (0 Bft)
06.10.2015 08:35 11,8 C 12,6 C 85 % 1009,9 hPa 0,0 mm 0,0 km/h (0 Bft) NO 45 9,4 C 0,0 km/h (0 Bft)
06.10.2015 08:40 11,9 C 12,7 C 85 % 1009,9 hPa 0,0 mm 0,0 km/h (0 Bft) NO 45 9,5 C 0,0 km/h (0 Bft)
06.10.2015 08:45 12,0 C 13,1 C 84 % 1009,9 hPa 0,0 mm 0,3 km/h (0 Bft) O-NO 67 9,4 C 0,0 km/h (0 Bft)
06.10.2015 08:50 12,2 C 13,5 C 84 % 1009,9 hPa 0,0 mm 0,3 km/h (0 Bft) NO 45 9,6 C 0,0 km/h (0 Bft)
06.10.2015 08:55 12,4 C 13,8 C 84 % 1009,9 hPa 0,0 mm 0,0 km/h (0 Bft) NO 45 9,8 C 0,0 km/h (0 Bft)
06.10.2015 09:00 12,8 C 14,5 C 84 % 1009,9 hPa 0,0 mm 0,0 km/h (0 Bft) W 270 10,2 C 0,0 km/h (0 Bft)
06.10.2015 09:05 13,0 C 14,9 C 83 % 1009,9 hPa 0,0 mm 0,0 km/h (0 Bft) W 270 10,2 C 0,0 km/h (0 Bft)
06.10.2015 09:10 13,3 C 15,3 C 82 % 1009,9 hPa 0,0 mm 0,0 km/h (0 Bft) O-SO 112 10,3 C 0,0 km/h (0 Bft)
06.10.2015 09:15 13,4 C 15,5 C 82 % 1009,9 hPa 0,0 mm 0,0 km/h (0 Bft) NO 45 10,4 C 0,0 km/h (0 Bft)
06.10.2015 09:20 13,6 C 15,8 C 81 % 1009,9 hPa 0,0 mm 0,0 km/h (0 Bft) NO 45 10,4 C 0,0 km/h (0 Bft)
06.10.2015 09:25 13,8 C 16,2 C 81 % 1009,9 hPa 0,0 mm 0,0 km/h (0 Bft) S-SO 157 10,6 C 0,0 km/h (0 Bft)
06.10.2015 09:30 13,8 C 17,1 C 80 % 1009,9 hPa 0,0 mm 0,0 km/h (0 Bft) NO 45 10,4 C 0,0 km/h (0 Bft)
06.10.2015 09:35 13,8 C 17,2 C 80 % 1009,9 hPa 0,0 mm 0,3 km/h (0 Bft) O-NO 67 10,4 C 0,0 km/h (0 Bft)
06.10.2015 09:40 13,8 C 18,8 C 80 % 1009,9 hPa 0,0 mm 0,3 km/h (0 Bft) O 90 10,4 C 0,0 km/h (0 Bft)
06.10.2015 09:45 13,9 C 20,6 C 79 % 1009,9 hPa 0,0 mm 0,0 km/h (0 Bft) O 90 10,3 C 0,0 km/h (0 Bft)
06.10.2015 09:50 14,2 C 21,1 C 79 % 1009,9 hPa 0,0 mm 0,0 km/h (0 Bft) O-NO 67 10,6 C 0,0 km/h (0 Bft)
06.10.2015 09:55 14,2 C 21,6 C 78 % 1009,8 hPa 0,0 mm 0,0 km/h (0 Bft) O 90 10,4 C 0,0 km/h (0 Bft)
06.10.2015 10:00 14,5 C 22,9 C 78 % 1009,8 hPa 0,0 mm 0,0 km/h (0 Bft) O 90 10,7 C 0,0 km/h (0 Bft)
06.10.2015 10:05 14,7 C 23,2 C 77 % 1009,8 hPa 0,0 mm 0,0 km/h (0 Bft) O 90 10,7 C 0,0 km/h (0 Bft)
06.10.2015 10:10 14,9 C 22,0 C 77 % 1009,8 hPa 0,0 mm 0,0 km/h (0 Bft) O-NO 67 10,9 C 0,0 km/h (0 Bft)
06.10.2015 10:15 15,1 C 21,5 C 77 % 1010,3 hPa 0,0 mm 0,0 km/h (0 Bft) O 90 11,1 C 0,0 km/h (0 Bft)
06.10.2015 10:20 15,5 C 21,6 C 76 % 1010,3 hPa 0,0 mm 0,0 km/h (0 Bft) NO 45 11,3 C 0,0 km/h (0 Bft)
06.10.2015 10:25 15,7 C 21,3 C 76 % 1010,3 hPa 0,0 mm 0,0 km/h (0 Bft) O 90 11,5 C 0,0 km/h (0 Bft)
06.10.2015 10:30 16,0 C 23,1 C 75 % 1010,3 hPa 0,0 mm 0,0 km/h (0 Bft) O-NO 67 11,6 C 0,0 km/h (0 Bft)
06.10.2015 10:35 16,2 C 24,1 C 74 % 1010,5 hPa 0,0 mm 0,0 km/h (0 Bft) O 90 11,6 C 0,0 km/h (0 Bft)
06.10.2015 10:40 16,5 C 24,5 C 73 % 1010,5 hPa 0,0 mm 0,0 km/h (0 Bft) NO 45 11,6 C 0,0 km/h (0 Bft)
06.10.2015 10:45 16,6 C 24,0 C 73 % 1010,5 hPa 0,0 mm 0,0 km/h (0 Bft) NO 45 11,7 C 0,0 km/h (0 Bft)
06.10.2015 10:50 16,8 C 24,2 C 72 % 1010,5 hPa 0,0 mm 0,0 km/h (0 Bft) NO 45 11,7 C 0,0 km/h (0 Bft)
06.10.2015 10:55 17,6 C 25,1 C 71 % 1010,8 hPa 0,0 mm 0,0 km/h (0 Bft) O 90 12,3 C 0,0 km/h (0 Bft)
06.10.2015 11:00 17,9 C 26,2 C 69 % 1010,8 hPa 0,0 mm 0,0 km/h (0 Bft) O 90 12,1 C 0,0 km/h (0 Bft)
06.10.2015 11:05 18,2 C 26,5 C 69 % 1010,8 hPa 0,0 mm 0,0 km/h (0 Bft) N-NO 22 12,4 C 0,0 km/h (0 Bft)
06.10.2015 11:10 19,0 C 27,0 C 69 % 1010,8 hPa 0,0 mm 0,3 km/h (0 Bft) O-SO 112 13,2 C 3,9 km/h (1 Bft)
06.10.2015 11:15 19,1 C 27,0 C 68 % 1011,6 hPa 0,0 mm 0,5 km/h (0 Bft) O-SO 112 13,1 C 3,1 km/h (1 Bft)
06.10.2015 11:20 18,8 C 26,8 C 68 % 1011,6 hPa 0,0 mm 0,8 km/h (0 Bft) O-SO 112 12,8 C 0,0 km/h (0 Bft)
06.10.2015 11:25 19,1 C 26,3 C 68 % 1011,6 hPa 0,0 mm 1,0 km/h (0 Bft) SO 135 13,1 C 0,0 km/h (0 Bft)
06.10.2015 11:30 18,6 C 25,0 C 68 % 1011,6 hPa 0,0 mm 1,6 km/h (1 Bft) NO 45 12,6 C 4,4 km/h (1 Bft)
06.10.2015 11:35 19,0 C 24,8 C 68 % 1011,7 hPa 0,0 mm 2,1 km/h (1 Bft) N-NO 22 13,0 C 3,4 km/h (1 Bft)
06.10.2015 11:40 19,2 C 24,5 C 67 % 1011,7 hPa 0,0 mm 1,8 km/h (1 Bft) O-NO 67 12,9 C 0,0 km/h (0 Bft)
06.10.2015 11:45 19,0 C 23,9 C 67 % 1011,7 hPa 0,0 mm 1,0 km/h (0 Bft) O-NO 67 12,7 C 0,0 km/h (0 Bft)
06.10.2015 11:50 18,9 C 23,3 C 66 % 1011,7 hPa 0,0 mm 0,8 km/h (0 Bft) O-NO 67 12,4 C 0,0 km/h (0 Bft)
06.10.2015 11:55 19,1 C 23,1 C 65 % 1011,2 hPa 0,0 mm 0,5 km/h (0 Bft) SW 225 12,4 C 0,0 km/h (0 Bft)
06.10.2015 12:00 19,3 C 22,9 C 64 % 1011,2 hPa 0,0 mm 1,0 km/h (0 Bft) O-SO 112 12,3 C 11,9 km/h (2 Bft)
06.10.2015 12:05 19,3 C 22,7 C 63 % 1011,2 hPa 0,0 mm 1,6 km/h (1 Bft) N-NO 22 12,1 C 0,0 km/h (0 Bft)
06.10.2015 12:10 19,7 C 23,4 C 61 % 1011,2 hPa 0,0 mm 3,4 km/h (1 Bft) O-NO 67 12,0 C 10,1 km/h (2 Bft)
06.10.2015 12:15 19,7 C 23,5 C 60 % 1010,5 hPa 0,0 mm 3,9 km/h (1 Bft) NO 45 11,7 C 7,8 km/h (2 Bft)
06.10.2015 12:20 19,8 C 23,3 C 59 % 1010,5 hPa 0,0 mm 4,7 km/h (1 Bft) O-NO 67 11,6 C 6,2 km/h (2 Bft)
06.10.2015 12:25 19,8 C 23,2 C 59 % 1010,5 hPa 0,0 mm 4,1 km/h (1 Bft) N-NO 22 11,6 C 3,1 km/h (1 Bft)
06.10.2015 12:30 19,8 C 23,4 C 59 % 1010,5 hPa 0,0 mm 3,6 km/h (1 Bft) O 90 11,6 C 4,4 km/h (1 Bft)
06.10.2015 12:35 19,7 C 23,1 C 58 % 1010,4 hPa 0,0 mm 5,2 km/h (1 Bft) NO 45 11,2 C 4,9 km/h (1 Bft)
06.10.2015 12:40 19,8 C 22,9 C 57 % 1010,4 hPa 0,0 mm 8,0 km/h (2 Bft) O-NO 67 11,0 C 19,7 km/h (3 Bft)
06.10.2015 12:45 19,6 C 22,7 C 57 % 1010,4 hPa 0,0 mm 6,7 km/h (2 Bft) NO 45 10,8 C 6,5 km/h (2 Bft)
06.10.2015 12:50 19,6 C 22,0 C 57 % 1010,4 hPa 0,0 mm 5,7 km/h (1 Bft) N 360 10,8 C 11,1 km/h (2 Bft)
06.10.2015 12:55 19,5 C 21,6 C 58 % 1010,1 hPa 0,0 mm 6,2 km/h (2 Bft) O-NO 67 11,0 C 8,8 km/h (2 Bft)
06.10.2015 13:00 19,8 C 22,0 C 59 % 1010,1 hPa 0,0 mm 4,9 km/h (1 Bft) N-NO 22 11,6 C 6,7 km/h (2 Bft)
06.10.2015 13:05 19,7 C 22,0 C 58 % 1010,1 hPa 0,0 mm 5,4 km/h (1 Bft) NO 45 11,2 C 0,0 km/h (0 Bft)
06.10.2015 13:10 19,7 C 21,8 C 57 % 1010,1 hPa 0,0 mm 8,3 km/h (2 Bft) O-NO 67 10,9 C 21,5 km/h (4 Bft)
06.10.2015 13:15 19,6 C 21,4 C 57 % 1009,8 hPa 0,0 mm 7,5 km/h (2 Bft) N-NO 22 10,8 C 12,9 km/h (3 Bft)
06.10.2015 13:20 19,5 C 21,3 C 57 % 1009,8 hPa 0,0 mm 7,8 km/h (2 Bft) NO 45 10,8 C 6,0 km/h (2 Bft)
06.10.2015 13:25 19,6 C 21,5 C 58 % 1009,8 hPa 0,0 mm 6,2 km/h (2 Bft) SO 135 11,1 C 5,4 km/h (1 Bft)
06.10.2015 13:30 19,6 C 21,7 C 58 % 1009,8 hPa 0,0 mm 3,9 km/h (1 Bft) O-NO 67 11,1 C 3,1 km/h (1 Bft)
06.10.2015 13:35 19,6 C 21,8 C 57 % 1009,8 hPa 0,0 mm 4,4 km/h (1 Bft) O-NO 67 10,8 C 3,6 km/h (1 Bft)
06.10.2015 13:40 19,6 C 21,7 C 57 % 1009,8 hPa 0,0 mm 4,4 km/h (1 Bft) N-NO 22 10,8 C 7,8 km/h (2 Bft)
06.10.2015 13:45 19,5 C 21,6 C 57 % 1009,8 hPa 0,0 mm 5,2 km/h (1 Bft) NO 45 10,8 C 11,7 km/h (2 Bft)
06.10.2015 13:50 19,5 C 21,3 C 57 % 1009,8 hPa 0,0 mm 5,2 km/h (1 Bft) NO 45 10,8 C 2,8 km/h (1 Bft)
06.10.2015 13:55 19,5 C 21,3 C 57 % 1009,3 hPa 0,0 mm 4,7 km/h (1 Bft) NO 45 10,8 C 9,8 km/h (2 Bft)
06.10.2015 14:00 19,5 C 21,3 C 57 % 1009,3 hPa 0,0 mm 3,9 km/h (1 Bft) N 360 10,8 C 7,8 km/h (2 Bft)
06.10.2015 14:05 19,5 C 21,3 C 57 % 1009,3 hPa 0,0 mm 3,1 km/h (1 Bft) O 90 10,8 C 0,0 km/h (0 Bft)
06.10.2015 14:10 19,5 C 21,4 C 58 % 1009,3 hPa 0,0 mm 1,8 km/h (1 Bft) N-NO 22 11,0 C 0,0 km/h (0 Bft)
06.10.2015 14:15 19,5 C 21,4 C 57 % 1009,2 hPa 0,0 mm 2,6 km/h (1 Bft) W-SW 247 10,8 C 3,1 km/h (1 Bft)
06.10.2015 14:20 19,6 C 21,5 C 57 % 1009,2 hPa 0,0 mm 3,1 km/h (1 Bft) O-NO 67 10,8 C 0,0 km/h (0 Bft)
06.10.2015 14:25 19,6 C 21,7 C 58 % 1009,2 hPa 0,0 mm 1,6 km/h (1 Bft) NO 45 11,1 C 6,2 km/h (2 Bft)
06.10.2015 14:29 19,7 C 21,8 C 58 % 1009,2 hPa 0,0 mm 2,1 km/h (1 Bft) NO 45 11,2 C 5,7 km/h (1 Bft)
06.10.2015 14:30 19,7 C 21,8 C 58 % 1009,2 hPa 0,0 mm 2,1 km/h (1 Bft) NO 45 11,2 C 5,7 km/h (1 Bft)
06.10.2015 14:35 19,7 C 21,8 C 58 % 1009,0 hPa 0,0 mm 3,1 km/h (1 Bft) O 90 11,2 C 4,7 km/h (1 Bft)
06.10.2015 14:40 19,7 C 21,8 C 59 % 1009,0 hPa 0,0 mm 3,4 km/h (1 Bft) N-NO 22 11,5 C 5,4 km/h (1 Bft)
06.10.2015 14:45 19,8 C 21,9 C 59 % 1009,0 hPa 0,0 mm 3,4 km/h (1 Bft) SO 135 11,6 C 3,1 km/h (1 Bft)
06.10.2015 14:50 19,9 C 22,0 C 59 % 1009,0 hPa 0,0 mm 2,3 km/h (1 Bft) O-SO 112 11,6 C 0,0 km/h (0 Bft)
06.10.2015 14:55 19,8 C 22,0 C 59 % 1008,9 hPa 0,0 mm 2,6 km/h (1 Bft) O-NO 67 11,6 C 8,0 km/h (2 Bft)
06.10.2015 15:00 19,7 C 21,6 C 60 % 1008,9 hPa 0,0 mm 3,4 km/h (1 Bft) O-SO 112 11,7 C 5,2 km/h (1 Bft)
06.10.2015 15:05 19,7 C 21,5 C 60 % 1008,9 hPa 0,0 mm 2,8 km/h (1 Bft) N-NO 22 11,7 C 4,9 km/h (1 Bft)
06.10.2015 15:10 19,6 C 21,3 C 62 % 1008,7 hPa 0,0 mm 1,3 km/h (1 Bft) O-SO 112 12,1 C 0,0 km/h (0 Bft)
06.10.2015 15:15 19,6 C 21,3 C 62 % 1008,7 hPa 0,0 mm 1,3 km/h (1 Bft) O-SO 112 12,1 C 0,0 km/h (0 Bft)
06.10.2015 15:20 19,5 C 21,2 C 62 % 1008,7 hPa 0,0 mm 0,8 km/h (0 Bft) O-NO 67 12,0 C 0,0 km/h (0 Bft)
06.10.2015 15:25 19,4 C 21,1 C 63 % 1008,7 hPa 0,0 mm 1,0 km/h (0 Bft) O-NO 67 12,2 C 4,4 km/h (1 Bft)
06.10.2015 15:30 19,4 C 20,9 C 63 % 1008,7 hPa 0,0 mm 0,8 km/h (0 Bft) NO 45 12,2 C 0,0 km/h (0 Bft)
06.10.2015 15:35 19,4 C 21,0 C 64 % 1008,6 hPa 0,0 mm 0,5 km/h (0 Bft) NO 45 12,4 C 0,0 km/h (0 Bft)
06.10.2015 15:40 19,4 C 21,1 C 64 % 1008,6 hPa 0,0 mm 0,0 km/h (0 Bft) O-NO 67 12,4 C 0,0 km/h (0 Bft)
06.10.2015 15:45 19,5 C 21,1 C 64 % 1008,6 hPa 0,0 mm 0,0 km/h (0 Bft) O-NO 67 12,5 C 0,0 km/h (0 Bft)
06.10.2015 15:50 19,6 C 21,3 C 65 % 1008,6 hPa 0,0 mm 0,5 km/h (0 Bft) NO 45 12,8 C 4,7 km/h (1 Bft)
06.10.2015 15:55 19,4 C 21,1 C 65 % 1008,6 hPa 0,0 mm 2,3 km/h (1 Bft) N-NO 22 12,6 C 8,0 km/h (2 Bft)
06.10.2015 16:00 19,3 C 20,7 C 65 % 1008,6 hPa 0,0 mm 3,9 km/h (1 Bft) O-NO 67 12,6 C 4,7 km/h (1 Bft)
06.10.2015 16:05 19,3 C 20,6 C 66 % 1008,6 hPa 0,0 mm 2,3 km/h (1 Bft) O 90 12,8 C 0,0 km/h (0 Bft)
06.10.2015 16:10 19,2 C 20,3 C 66 % 1008,6 hPa 0,0 mm 2,3 km/h (1 Bft) O-NO 67 12,7 C 5,2 km/h (1 Bft)
06.10.2015 16:15 19,2 C 20,1 C 66 % 1008,5 hPa 0,0 mm 1,8 km/h (1 Bft) O-NO 67 12,7 C 0,0 km/h (0 Bft)
06.10.2015 16:20 19,1 C 20,1 C 67 % 1008,5 hPa 0,0 mm 0,3 km/h (0 Bft) O-NO 67 12,8 C 0,0 km/h (0 Bft)
06.10.2015 16:25 19,0 C 20,0 C 67 % 1008,5 hPa 0,0 mm 0,0 km/h (0 Bft) NO 45 12,7 C 0,0 km/h (0 Bft)
06.10.2015 16:30 18,8 C 19,8 C 68 % 1008,5 hPa 0,0 mm 0,5 km/h (0 Bft) NO 45 12,8 C 0,0 km/h (0 Bft)
06.10.2015 16:35 18,8 C 19,7 C 68 % 1008,2 hPa 0,0 mm 0,5 km/h (0 Bft) N-NO 22 12,8 C 0,0 km/h (0 Bft)
06.10.2015 16:40 18,7 C 19,6 C 68 % 1008,2 hPa 0,0 mm 0,0 km/h (0 Bft) N-NW 337 12,7 C 0,0 km/h (0 Bft)
06.10.2015 16:45 18,7 C 19,6 C 69 % 1008,2 hPa 0,0 mm 0,0 km/h (0 Bft) N-NW 337 12,9 C 0,0 km/h (0 Bft)
06.10.2015 16:50 18,6 C 19,6 C 69 % 1008,2 hPa 0,0 mm 0,0 km/h (0 Bft) N-NW 337 12,8 C 0,0 km/h (0 Bft)
06.10.2015 16:55 18,5 C 19,6 C 69 % 1008,3 hPa 0,0 mm 0,0 km/h (0 Bft) N-NW 337 12,7 C 0,0 km/h (0 Bft)
06.10.2015 17:00 18,5 C 19,8 C 69 % 1008,3 hPa 0,0 mm 0,0 km/h (0 Bft) N-NW 337 12,7 C 0,0 km/h (0 Bft)
06.10.2015 17:05 18,5 C 19,8 C 69 % 1008,3 hPa 0,0 mm 0,0 km/h (0 Bft) N-NW 337 12,7 C 0,0 km/h (0 Bft)
06.10.2015 17:10 18,5 C 19,6 C 69 % 1008,3 hPa 0,0 mm 0,5 km/h (0 Bft) W 270 12,7 C 4,7 km/h (1 Bft)
06.10.2015 17:15 18,5 C 19,5 C 69 % 1008,6 hPa 0,0 mm 0,8 km/h (0 Bft) W-SW 247 12,7 C 0,0 km/h (0 Bft)
06.10.2015 17:20 18,4 C 19,3 C 69 % 1008,6 hPa 0,0 mm 0,5 km/h (0 Bft) W-NW 292 12,6 C 0,0 km/h (0 Bft)
06.10.2015 17:25 18,3 C 19,0 C 69 % 1008,6 hPa 0,0 mm 1,0 km/h (0 Bft) W-SW 247 12,5 C 5,2 km/h (1 Bft)
06.10.2015 17:30 18,1 C 18,7 C 69 % 1008,6 hPa 0,0 mm 3,1 km/h (1 Bft) W 270 12,3 C 8,3 km/h (2 Bft)
06.10.2015 17:35 18,0 C 18,5 C 69 % 1008,9 hPa 0,0 mm 3,4 km/h (1 Bft) NW 315 12,2 C 10,9 km/h (2 Bft)
06.10.2015 17:40 17,9 C 18,3 C 70 % 1008,9 hPa 0,0 mm 2,6 km/h (1 Bft) W-SW 247 12,3 C 0,0 km/h (0 Bft)
06.10.2015 17:45 17,9 C 18,3 C 70 % 1008,9 hPa 0,0 mm 2,3 km/h (1 Bft) N-NW 337 12,3 C 9,8 km/h (2 Bft)
06.10.2015 17:50 18,0 C 18,3 C 70 % 1008,9 hPa 0,0 mm 4,9 km/h (1 Bft) W-NW 292 12,4 C 12,2 km/h (2 Bft)
06.10.2015 17:55 17,8 C 18,3 C 70 % 1009,6 hPa 0,0 mm 12,7 km/h (3 Bft) O-SO 112 12,3 C 48,7 km/h (6 Bft)
06.10.2015 18:00 16,8 C 17,6 C 71 % 1009,6 hPa 0,0 mm 19,7 km/h (3 Bft) W 270 11,5 C 49,7 km/h (6 Bft)
06.10.2015 18:05 16,6 C 16,9 C 72 % 1009,6 hPa 0,0 mm 18,9 km/h (3 Bft) S 180 11,5 C 8,3 km/h (2 Bft)
06.10.2015 18:10 15,9 C 16,3 C 73 % 1009,6 hPa 0,0 mm 12,4 km/h (3 Bft) N-NW 337 11,1 C 16,6 km/h (3 Bft)
06.10.2015 18:15 15,2 C 15,6 C 73 % 1010,6 hPa 0,0 mm 11,9 km/h (2 Bft) O-NO 67 10,4 C 17,9 km/h (3 Bft)
06.10.2015 18:20 14,1 C 14,6 C 75 % 1010,6 hPa 0,0 mm 15,0 km/h (3 Bft) SW 225 9,7 C 15,3 km/h (3 Bft)
06.10.2015 18:25 13,4 C 13,3 C 77 % 1010,6 hPa 0,0 mm 15,5 km/h (3 Bft) NW 315 9,5 C 8,8 km/h (2 Bft)
06.10.2015 18:30 13,1 C 12,8 C 78 % 1010,6 hPa 0,7 mm 9,6 km/h (2 Bft) S 180 9,4 C 8,0 km/h (2 Bft)
06.10.2015 18:35 12,8 C 12,6 C 80 % 1011,4 hPa 0,7 mm 6,7 km/h (2 Bft) W-SW 247 9,4 C 3,9 km/h (1 Bft)
06.10.2015 18:40 12,6 C 12,4 C 82 % 1011,4 hPa 0,0 mm 7,0 km/h (2 Bft) W-SW 247 9,6 C 10,4 km/h (2 Bft)
06.10.2015 18:45 12,5 C 12,2 C 82 % 1011,4 hPa 0,0 mm 6,7 km/h (2 Bft) SW 225 9,5 C 8,8 km/h (2 Bft)
06.10.2015 18:50 12,3 C 12,1 C 83 % 1011,4 hPa 0,0 mm 6,5 km/h (2 Bft) SW 225 9,5 C 9,8 km/h (2 Bft)
06.10.2015 18:55 12,2 C 12,0 C 83 % 1011,0 hPa 0,7 mm 7,3 km/h (2 Bft) S 180 9,4 C 16,1 km/h (3 Bft)
06.10.2015 19:00 12,0 C 11,8 C 84 % 1011,0 hPa 0,0 mm 6,5 km/h (2 Bft) SW 225 9,4 C 4,9 km/h (1 Bft)
06.10.2015 19:05 12,0 C 11,8 C 84 % 1011,0 hPa 0,0 mm 6,5 km/h (2 Bft) W-SW 247 9,4 C 0,0 km/h (0 Bft)
06.10.2015 19:10 11,9 C 11,7 C 85 % 1011,0 hPa 0,0 mm 6,0 km/h (2 Bft) S 180 9,5 C 8,3 km/h (2 Bft)
06.10.2015 19:15 11,9 C 11,7 C 85 % 1010,9 hPa 0,0 mm 5,4 km/h (1 Bft) W-NW 292 9,5 C 14,0 km/h (3 Bft)
06.10.2015 19:20 11,8 C 11,6 C 85 % 1010,9 hPa 0,0 mm 6,2 km/h (2 Bft) W-SW 247 9,4 C 11,1 km/h (2 Bft)
06.10.2015 19:25 11,8 C 11,6 C 85 % 1010,9 hPa 0,7 mm 6,0 km/h (2 Bft) W 270 9,4 C 4,7 km/h (1 Bft)
06.10.2015 19:30 11,7 C 11,5 C 85 % 1010,9 hPa 0,0 mm 5,7 km/h (1 Bft) SW 225 9,3 C 6,5 km/h (2 Bft)
06.10.2015 19:35 11,7 C 11,5 C 85 % 1011,0 hPa 0,0 mm 6,0 km/h (2 Bft) W-SW 247 9,3 C 7,0 km/h (2 Bft)
06.10.2015 19:40 11,7 C 11,5 C 85 % 1011,0 hPa 0,0 mm 5,4 km/h (1 Bft) SW 225 9,3 C 6,2 km/h (2 Bft)
06.10.2015 19:45 11,7 C 11,5 C 86 % 1011,0 hPa 0,0 mm 5,2 km/h (1 Bft) W-SW 247 9,4 C 7,3 km/h (2 Bft)
06.10.2015 19:50 11,7 C 11,5 C 86 % 1011,0 hPa 0,0 mm 4,9 km/h (1 Bft) S-SO 157 9,4 C 6,2 km/h (2 Bft)
06.10.2015 19:55 11,6 C 11,4 C 86 % 1011,0 hPa 0,0 mm 3,6 km/h (1 Bft) SO 135 9,3 C 2,6 km/h (1 Bft)
06.10.2015 20:00 11,5 C 11,4 C 87 % 1011,0 hPa 0,7 mm 1,3 km/h (1 Bft) O-SO 112 9,4 C 0,0 km/h (0 Bft)
06.10.2015 20:05 11,4 C 11,3 C 87 % 1011,0 hPa 0,0 mm 0,0 km/h (0 Bft) SO 135 9,3 C 0,0 km/h (0 Bft)
06.10.2015 20:10 11,4 C 11,3 C 87 % 1011,0 hPa 0,0 mm 0,3 km/h (0 Bft) O-SO 112 9,3 C 0,0 km/h (0 Bft)
06.10.2015 20:15 11,3 C 11,2 C 88 % 1011,0 hPa 0,0 mm 0,3 km/h (0 Bft) SO 135 9,4 C 0,0 km/h (0 Bft)
06.10.2015 20:20 11,3 C 11,2 C 88 % 1011,0 hPa 0,7 mm 0,0 km/h (0 Bft) O-NO 67 9,4 C 0,0 km/h (0 Bft)
06.10.2015 20:25 11,3 C 11,2 C 88 % 1011,0 hPa 0,0 mm 0,0 km/h (0 Bft) SO 135 9,4 C 0,0 km/h (0 Bft)
06.10.2015 20:30 11,3 C 11,2 C 88 % 1011,0 hPa 0,0 mm 0,8 km/h (0 Bft) SW 225 9,4 C 0,0 km/h (0 Bft)
06.10.2015 20:35 11,3 C 11,2 C 88 % 1011,0 hPa 0,0 mm 0,8 km/h (0 Bft) SW 225 9,4 C 0,0 km/h (0 Bft)
06.10.2015 20:40 11,2 C 11,1 C 88 % 1011,0 hPa 0,0 mm 0,0 km/h (0 Bft) SW 225 9,3 C 0,0 km/h (0 Bft)
06.10.2015 20:45 11,2 C 11,1 C 88 % 1011,0 hPa 0,7 mm 0,0 km/h (0 Bft) S 180 9,3 C 0,0 km/h (0 Bft)
06.10.2015 20:50 11,2 C 11,1 C 88 % 1011,0 hPa 0,0 mm 0,0 km/h (0 Bft) S 180 9,3 C 0,0 km/h (0 Bft)
06.10.2015 20:55 11,1 C 11,0 C 89 % 1011,0 hPa 0,0 mm 0,0 km/h (0 Bft) W-SW 247 9,4 C 0,0 km/h (0 Bft)
06.10.2015 21:00 11,1 C 11,0 C 89 % 1011,0 hPa 0,0 mm 0,0 km/h (0 Bft) W-SW 247 9,4 C 0,0 km/h (0 Bft)
06.10.2015 21:05 11,1 C 11,0 C 89 % 1011,0 hPa 0,0 mm 0,0 km/h (0 Bft) W-SW 247 9,4 C 0,0 km/h (0 Bft)
06.10.2015 21:10 11,2 C 11,1 C 89 % 1011,0 hPa 0,0 mm 0,0 km/h (0 Bft) O-SO 112 9,5 C 0,0 km/h (0 Bft)
06.10.2015 21:15 11,1 C 11,0 C 89 % 1011,1 hPa 0,0 mm 0,0 km/h (0 Bft) O-NO 67 9,4 C 0,0 km/h (0 Bft)
06.10.2015 21:20 11,1 C 11,0 C 89 % 1011,1 hPa 0,0 mm 0,0 km/h (0 Bft) O-NO 67 9,4 C 0,0 km/h (0 Bft)
06.10.2015 21:25 11,1 C 11,0 C 89 % 1011,1 hPa 0,0 mm 0,0 km/h (0 Bft) O-NO 67 9,4 C 0,0 km/h (0 Bft)
06.10.2015 21:30 11,1 C 11,0 C 89 % 1011,1 hPa 0,7 mm 0,0 km/h (0 Bft) O-NO 67 9,4 C 0,0 km/h (0 Bft)
06.10.2015 21:35 11,0 C 10,9 C 89 % 1011,0 hPa 0,0 mm 0,0 km/h (0 Bft) NO 45 9,3 C 0,0 km/h (0 Bft)
06.10.2015 21:40 11,1 C 11,0 C 89 % 1011,0 hPa 0,0 mm 0,0 km/h (0 Bft) O-NO 67 9,4 C 0,0 km/h (0 Bft)
06.10.2015 21:45 11,1 C 11,0 C 89 % 1011,0 hPa 0,0 mm 0,0 km/h (0 Bft) S-SW 202 9,4 C 0,0 km/h (0 Bft)
06.10.2015 21:50 11,1 C 11,0 C 89 % 1011,0 hPa 0,7 mm 0,0 km/h (0 Bft) W-SW 247 9,4 C 0,0 km/h (0 Bft)
06.10.2015 21:55 11,1 C 11,0 C 89 % 1011,3 hPa 0,0 mm 0,0 km/h (0 Bft) SW 225 9,4 C 0,0 km/h (0 Bft)
06.10.2015 22:00 11,1 C 11,0 C 89 % 1011,3 hPa 0,7 mm 0,0 km/h (0 Bft) S 180 9,4 C 0,0 km/h (0 Bft)
06.10.2015 22:05 11,1 C 11,0 C 89 % 1011,3 hPa 0,0 mm 0,0 km/h (0 Bft) S-SO 157 9,4 C 0,0 km/h (0 Bft)
06.10.2015 22:10 11,1 C 11,0 C 89 % 1011,3 hPa 0,0 mm 0,0 km/h (0 Bft) O-SO 112 9,4 C 0,0 km/h (0 Bft)
06.10.2015 22:15 11,0 C 10,9 C 89 % 1011,4 hPa 0,0 mm 0,0 km/h (0 Bft) NW 315 9,3 C 0,0 km/h (0 Bft)
06.10.2015 22:20 11,0 C 10,9 C 89 % 1011,4 hPa 0,0 mm 0,3 km/h (0 Bft) W 270 9,3 C 0,0 km/h (0 Bft)
06.10.2015 22:25 11,0 C 10,9 C 89 % 1011,4 hPa 0,0 mm 0,3 km/h (0 Bft) S-SW 202 9,3 C 0,0 km/h (0 Bft)
06.10.2015 22:30 11,0 C 10,9 C 89 % 1011,4 hPa 0,0 mm 0,0 km/h (0 Bft) W 270 9,3 C 0,0 km/h (0 Bft)
06.10.2015 22:35 11,0 C 10,9 C 89 % 1011,4 hPa 0,0 mm 0,0 km/h (0 Bft) NW 315 9,3 C 0,0 km/h (0 Bft)
06.10.2015 22:40 10,9 C 10,9 C 90 % 1011,4 hPa 0,0 mm 0,0 km/h (0 Bft) N-NO 22 9,3 C 0,0 km/h (0 Bft)
06.10.2015 22:45 11,0 C 10,9 C 89 % 1011,4 hPa 0,0 mm 0,0 km/h (0 Bft) N-NW 337 9,3 C 0,0 km/h (0 Bft)
06.10.2015 22:50 10,9 C 10,9 C 90 % 1011,4 hPa 0,0 mm 0,0 km/h (0 Bft) N-NW 337 9,3 C 0,0 km/h (0 Bft)
06.10.2015 22:55 11,0 C 10,9 C 89 % 1011,4 hPa 0,0 mm 0,0 km/h (0 Bft) N-NW 337 9,3 C 0,0 km/h (0 Bft)
06.10.2015 23:00 10,9 C 10,9 C 90 % 1011,4 hPa 0,0 mm 0,0 km/h (0 Bft) NO 45 9,3 C 0,0 km/h (0 Bft)
06.10.2015 23:05 10,9 C 10,9 C 90 % 1011,4 hPa 0,0 mm 0,0 km/h (0 Bft) NO 45 9,3 C 0,0 km/h (0 Bft)
06.10.2015 23:10 10,9 C 10,9 C 90 % 1011,4 hPa 0,0 mm 0,0 km/h (0 Bft) N-NO 22 9,3 C 0,0 km/h (0 Bft)
06.10.2015 23:15 10,9 C 10,9 C 90 % 1011,3 hPa 0,0 mm 0,0 km/h (0 Bft) NO 45 9,3 C 0,0 km/h (0 Bft)
06.10.2015 23:20 11,0 C 10,9 C 90 % 1011,3 hPa 0,0 mm 0,0 km/h (0 Bft) O-NO 67 9,4 C 0,0 km/h (0 Bft)
06.10.2015 23:25 11,0 C 10,9 C 90 % 1011,3 hPa 0,0 mm 0,3 km/h (0 Bft) O-NO 67 9,4 C 3,1 km/h (1 Bft)
06.10.2015 23:30 11,0 C 10,9 C 90 % 1011,3 hPa 0,0 mm 0,3 km/h (0 Bft) O 90 9,4 C 0,0 km/h (0 Bft)
06.10.2015 23:35 10,9 C 10,9 C 90 % 1011,3 hPa 0,0 mm 0,0 km/h (0 Bft) N-NW 337 9,3 C 2,6 km/h (1 Bft)
06.10.2015 23:40 10,9 C 10,9 C 90 % 1011,3 hPa 0,0 mm 0,3 km/h (0 Bft) NW 315 9,3 C 0,0 km/h (0 Bft)
06.10.2015 23:45 10,9 C 10,9 C 90 % 1011,3 hPa 0,0 mm 0,3 km/h (0 Bft) NW 315 9,3 C 0,0 km/h (0 Bft)
06.10.2015 23:50 10,9 C 10,9 C 90 % 1011,3 hPa 0,0 mm 0,0 km/h (0 Bft) W-NW 292 9,3 C 0,0 km/h (0 Bft)
06.10.2015 23:55 11,0 C 10,9 C 90 % 1011,4 hPa 0,7 mm 0,5 km/h (0 Bft) N-NO 22 9,4 C 3,6 km/h (1 Bft)
_ Min-Zeit 07:10 07:10 14:20 16:50 - 23:50 - - 00:00 23:50
Minimum _ 10,6 C 10,5 C 57 % 1008,2 hPa - 0,0 km/h (0 Bft) - - 7,9 C 0,0 km/h (0 Bft)
_ Max-Zeit 14:50 11:15 23:55 01:30 23:55 18:00 - - 11:10 18:00
Maximum _ 19,9 C 27,0 C 90 % 1012,0 hPa 0,7 mm 19,7 km/h
W (3 Bft)
- - 13,2 C 49,7 km/h
W (6 Bft)
Durchschnitt _ 14,0 C 15,2 C 79 % 1010,6 hPa #8,9 mm 1,6 km/h (1 Bft) O-NO - 10,2 C 2,4 km/h (1 Bft)